CZ-6A DEB

Satellite information

Favourite Embed

Satellite Type and Status

DEBRISIN ORBIT

Key statistics

Satellite CZ-6A DEB at a glance.

Uptime

1072

Days in orbit

Revolutions

≈ 14.1

Per day

Orbit

SSO

Sun Synchronous Orbit

Inclination

98.8

Latest

Satellite identification and parameters

Extended collection of information and parameters for CZ-6A DEB.

Object identification

Identified? True

Debris? True

Object name: CZ-6A DEB

International designator: 2022-151NN

Object number (NORAD): 54612

Object ID (CCSDS): 54612

Country: PEOPLES REPUBLIC OF CHINA (PRC)

Current information (Y/N): Y

RCS size: SMALL

Orbital parameters

Period: 102.025 minutes

Inclination: 98.8289 deg

SMA: 7232.672 km

Apoapsis: 890.374 km

Periapsis: 818.701 km

RAAN: 289.5852 deg

Eccentricy: 0.00495481

Argument of periapsis: 316.243 deg

Mean anomaly: 43.4819 deg

Mean motion: 14.11414571 rev/day

Mean motion (dot): 0.00001484 rev/day2

B* drag term: 0.00083413025 1/REarth

Two-line elements (TLE)

Creation date: Oct. 18, 2025, 2:17 a.m.

Reference frame: TEME

Reference center: EARTH

Epoch: Oct. 17, 2025, 10:57 p.m. UTC

TLE line 0: 0 CZ-6A DEB

TLE line 1: 1 54612U 22151NN 25290.95645380 .00001484 00000-0 83413-3 0 9996

TLE line 2: 2 54612 98.8289 289.5852 0049548 316.2430 43.4819 14.11414571150196

Live tracking on map

Real-time ground track for satellite CZ-6A DEB.

In-orbit conjunctions

A list of the most updated potential collisions computed for object CZ-6A DEB.

Target Orbit TCA Probability of collision Miss distance Type
FENGYUN 1C DEB SSO 2025-05-27 15:37:15 0.0003053403 210.0 (m) DEBRIS
METEOR 2-8 DEB LEO 2024-09-26 22:26:35 0.000136639 293.0 (m) DEBRIS

Associated space launch

Chinese satellite reported for atmospheric/ocean/environmental/spatial parameter research purposes, details TBD.

CZ-6A DEB was lifted into orbit during the mission ‘Long March 6A | Yunhai 3’, on board a Long March 6A space rocket.

The launch took place on Nov. 11, 2022, 10:52 p.m. from Launch Complex 9A.

For more information about the launch, click the button.

Launch to space Long March 6A | Yunhai 3
Long March 6A | Yunhai 3

Agency: N/A

Status: Launch Successful

Launch date: Nov. 11, 2022, 10:52 p.m. UTC

Rocket: Long March 6A

Launch pad: Launch Complex 9A

Location: Taiyuan Satellite Launch Center, People's Republic of China

...

Latest news about this satellite

There are no fresh news available about this satellite. Check back as we update our databases every day.


Newsletter sign-up

Weekly statistics, charts and insights to help you stay on top of the space industry.